Saint George, Bermuda

5:12 AM AST on February 21, 2019 (GMT -0400)
Saint George

Weather History for 78016 - September, 1996

Change the Weather History Date:

Saturday, September 14, 1996

  Actual Average Record
Temperature  
Mean Temperature 80 °F -  
Max Temperature 82 °F 79 °F - ()
Min Temperature 78 °F 72 °F - ()
Cooling Degree Days 15    
Growing Degree Days 30 (Base 50)    
Moisture  
Dew Point 76 °F    
Average Humidity 84    
Maximum Humidity 89    
Minimum Humidity 79    
Precipitation  
Precipitation 0.00 in - - ()
Sea Level Pressure  
Sea Level Pressure 29.92 in    
Wind  
Wind Speed 20 mph ()    
Max Wind Speed 31 mph    
Max Gust Speed 43 mph    
Visibility 6.4 miles    
Events Rain    
T = Trace of Precipitation, MM = Missing Value Source: Averaged Metar Reports

Daily Weather History Graph

Daily Weather History Graph

Search for Another Location

Airport or City:

Astronomy

Sep. 14, 1996 Rise Set
Actual Time 7:02 AM ADT 7:25 PM ADT
Civil Twilight 6:37 AM ADT 7:50 PM ADT
Nautical Twilight 6:08 AM ADT 8:19 PM ADT
Astronomical Twilight 5:39 AM ADT 8:48 PM ADT
Moon 8:26 AM ADT (9/14) 8:25 PM ADT (9/14)
Length of Visible Light 13h 12m
Length of Day
12h 23m
Waxing Crescent, 3% of the Moon is Illuminated
Sep 14
Waxing Crescent
Sep 20
First Quarter
Sep 26
Full
Oct 4
Last Quarter
Oct 12
New

Hourly Weather History & Observations

Time (ADT) Temp. Heat Index Dew Point Humidity Pressure Visibility Wind Dir Wind Speed Gust Speed Precip Events Conditions
12:55 AM 82.4 °F 90.9 °F 77.0 °F 84% 29.86 in 6.0 mi South 31.1 mph 38.0 mph N/A   Unknown
1:55 AM 80.6 °F 87.1 °F 77.0 °F 89% 29.86 in 6.0 mi SSW 31.1 mph 36.8 mph N/A   Unknown
2:35 AM - - - N/A% 29.87 in 3.0 mi South 26.5 mph 42.6 mph N/A Rain Light Rain Showers
2:55 AM 80.6 °F 87.1 °F 77.0 °F 89% 29.86 in 6.0 mi SSW 24.2 mph 32.2 mph N/A Rain Light Rain Showers
3:55 AM 82.4 °F 90.9 °F 77.0 °F 84% 29.86 in 6.0 mi SSW 25.3 mph 33.4 mph N/A Rain Light Rain Showers
4:55 AM 82.4 °F 90.9 °F 77.0 °F 84% 29.86 in 6.0 mi SSW 25.3 mph 31.1 mph N/A   Unknown
5:40 AM - - - N/A% 29.87 in 5.0 mi SSW 23.0 mph 36.8 mph N/A Rain Light Rain Showers
5:55 AM 80.6 °F 87.1 °F 77.0 °F 89% 29.87 in 6.0 mi SSW 26.5 mph 32.2 mph N/A Rain Light Rain Showers
6:55 AM 80.6 °F 87.1 °F 77.0 °F 89% 29.87 in 7.0 mi SW 17.3 mph 23.0 mph N/A   Mostly Cloudy
7:55 AM 80.6 °F 87.1 °F 77.0 °F 89% 29.88 in 7.0 mi SW 21.9 mph - N/A   Mostly Cloudy
8:55 AM 80.6 °F 86.2 °F 75.2 °F 84% 29.89 in 7.0 mi SW 17.3 mph - N/A   Scattered Clouds
9:55 AM 82.4 °F 90.9 °F 77.0 °F 84% 29.91 in 7.0 mi SW 18.4 mph - N/A   Mostly Cloudy
10:55 AM 82.4 °F 89.5 °F 75.2 °F 79% 29.94 in 7.0 mi SW 17.3 mph - N/A   Mostly Cloudy
11:55 AM 82.4 °F 89.5 °F 75.2 °F 79% 29.94 in 7.0 mi SW 20.7 mph - N/A   Mostly Cloudy
12:55 PM 82.4 °F 89.5 °F 75.2 °F 79% 29.94 in 7.0 mi SW 18.4 mph - N/A   Mostly Cloudy
1:55 PM 82.4 °F 90.9 °F 77.0 °F 84% 29.93 in 7.0 mi SSW 17.3 mph - N/A   Mostly Cloudy
2:07 PM - - - N/A% 29.93 in 2.0 mi SSW 17.3 mph 28.8 mph N/A Rain Rain Showers
2:15 PM - - - N/A% 29.93 in 7.0 mi SSW 17.3 mph - N/A   Mostly Cloudy
2:55 PM 80.6 °F 86.2 °F 75.2 °F 84% 29.92 in 7.0 mi SW 20.7 mph - N/A   Mostly Cloudy
3:55 PM 82.4 °F 89.5 °F 75.2 °F 79% 29.93 in 7.0 mi SSW 13.8 mph - N/A   Overcast
4:55 PM 82.4 °F 89.5 °F 75.2 °F 79% 29.93 in 7.0 mi SSW 13.8 mph - N/A   Overcast
5:55 PM 82.4 °F 89.5 °F 75.2 °F 79% 29.94 in 7.0 mi SSW 16.1 mph - N/A   Overcast
6:55 PM 80.6 °F 86.2 °F 75.2 °F 84% 29.95 in 7.0 mi SSW 17.3 mph - N/A   Overcast
7:40 PM - - - N/A% 29.96 in 6.0 mi South 17.3 mph - N/A Rain Light Rain Showers
7:55 PM 80.6 °F 86.2 °F 75.2 °F 84% 29.96 in 6.0 mi South 17.3 mph - N/A Rain Light Rain Showers
8:30 PM - - - N/A% 29.96 in 7.0 mi South 19.6 mph - N/A   Overcast
8:55 PM 80.6 °F 86.2 °F 75.2 °F 84% 29.97 in 7.0 mi SSW 18.4 mph - N/A   Overcast
9:55 PM 80.6 °F 86.2 °F 75.2 °F 84% 29.96 in 7.0 mi SW 11.5 mph - N/A   Overcast
10:55 PM 78.8 °F - 75.2 °F 89% 29.96 in 7.0 mi SW 9.2 mph - N/A   Overcast
11:55 PM 80.6 °F 87.1 °F 77.0 °F 89% 29.96 in 7.0 mi SW 15.0 mph - N/A   Overcast